Index of /20260428/WXO-DD/model_rdps/10km/18/055
Name Last modified Size Description
Parent Directory -
20260428T18Z_MSC_RDPS_AbsoluteVorticity_IsbL-0250_RLatLon0.09_PT055H.grib2 2026-04-28 20:57 615K
20260428T18Z_MSC_RDPS_AbsoluteVorticity_IsbL-0500_RLatLon0.09_PT055H.grib2 2026-04-28 20:57 566K
20260428T18Z_MSC_RDPS_AbsoluteVorticity_IsbL-0700_RLatLon0.09_PT055H.grib2 2026-04-28 20:57 620K
20260428T18Z_MSC_RDPS_AbsoluteVorticity_IsbL-0850_RLatLon0.09_PT055H.grib2 2026-04-28 20:57 766K
20260428T18Z_MSC_RDPS_AirTemp_AGL-120m_RLatLon0.09_PT055H.grib2 2026-04-28 20:57 384K
20260428T18Z_MSC_RDPS_AirTemp_AGL-2m_RLatLon0.09_PT055H.grib2 2026-04-28 20:57 623K
20260428T18Z_MSC_RDPS_AirTemp_AGL-40m_RLatLon0.09_PT055H.grib2 2026-04-28 20:57 397K
20260428T18Z_MSC_RDPS_AirTemp_AGL-80m_RLatLon0.09_PT055H.grib2 2026-04-28 20:57 389K
20260428T18Z_MSC_RDPS_AirTemp_IsbL-0001_RLatLon0.09_PT055H.grib2 2026-04-28 20:57 258K
20260428T18Z_MSC_RDPS_AirTemp_IsbL-0005_RLatLon0.09_PT055H.grib2 2026-04-28 20:57 291K
20260428T18Z_MSC_RDPS_AirTemp_IsbL-0010_RLatLon0.09_PT055H.grib2 2026-04-28 20:57 305K
20260428T18Z_MSC_RDPS_AirTemp_IsbL-0020_RLatLon0.09_PT055H.grib2 2026-04-28 20:57 319K
20260428T18Z_MSC_RDPS_AirTemp_IsbL-0030_RLatLon0.09_PT055H.grib2 2026-04-28 20:57 341K
20260428T18Z_MSC_RDPS_AirTemp_IsbL-0050_RLatLon0.09_PT055H.grib2 2026-04-28 20:57 312K
20260428T18Z_MSC_RDPS_AirTemp_IsbL-0100_RLatLon0.09_PT055H.grib2 2026-04-28 20:57 423K
20260428T18Z_MSC_RDPS_AirTemp_IsbL-0150_RLatLon0.09_PT055H.grib2 2026-04-28 20:57 422K
20260428T18Z_MSC_RDPS_AirTemp_IsbL-0175_RLatLon0.09_PT055H.grib2 2026-04-28 20:57 413K
20260428T18Z_MSC_RDPS_AirTemp_IsbL-0200_RLatLon0.09_PT055H.grib2 2026-04-28 20:57 417K
20260428T18Z_MSC_RDPS_AirTemp_IsbL-0225_RLatLon0.09_PT055H.grib2 2026-04-28 20:57 418K
20260428T18Z_MSC_RDPS_AirTemp_IsbL-0250_RLatLon0.09_PT055H.grib2 2026-04-28 20:57 424K
20260428T18Z_MSC_RDPS_AirTemp_IsbL-0275_RLatLon0.09_PT055H.grib2 2026-04-28 20:57 404K
20260428T18Z_MSC_RDPS_AirTemp_IsbL-0300_RLatLon0.09_PT055H.grib2 2026-04-28 20:57 412K
20260428T18Z_MSC_RDPS_AirTemp_IsbL-0350_RLatLon0.09_PT055H.grib2 2026-04-28 20:57 425K
20260428T18Z_MSC_RDPS_AirTemp_IsbL-0400_RLatLon0.09_PT055H.grib2 2026-04-28 20:57 426K
20260428T18Z_MSC_RDPS_AirTemp_IsbL-0450_RLatLon0.09_PT055H.grib2 2026-04-28 20:57 399K
20260428T18Z_MSC_RDPS_AirTemp_IsbL-0500_RLatLon0.09_PT055H.grib2 2026-04-28 20:57 408K
20260428T18Z_MSC_RDPS_AirTemp_IsbL-0550_RLatLon0.09_PT055H.grib2 2026-04-28 20:57 426K
20260428T18Z_MSC_RDPS_AirTemp_IsbL-0600_RLatLon0.09_PT055H.grib2 2026-04-28 20:57 446K
20260428T18Z_MSC_RDPS_AirTemp_IsbL-0650_RLatLon0.09_PT055H.grib2 2026-04-28 20:57 462K
20260428T18Z_MSC_RDPS_AirTemp_IsbL-0700_RLatLon0.09_PT055H.grib2 2026-04-28 20:57 378K
20260428T18Z_MSC_RDPS_AirTemp_IsbL-0750_RLatLon0.09_PT055H.grib2 2026-04-28 20:57 406K
20260428T18Z_MSC_RDPS_AirTemp_IsbL-0800_RLatLon0.09_PT055H.grib2 2026-04-28 20:57 442K
20260428T18Z_MSC_RDPS_AirTemp_IsbL-0850_RLatLon0.09_PT055H.grib2 2026-04-28 20:57 485K
20260428T18Z_MSC_RDPS_AirTemp_IsbL-0875_RLatLon0.09_PT055H.grib2 2026-04-28 20:57 506K
20260428T18Z_MSC_RDPS_AirTemp_IsbL-0900_RLatLon0.09_PT055H.grib2 2026-04-28 20:57 516K
20260428T18Z_MSC_RDPS_AirTemp_IsbL-0925_RLatLon0.09_PT055H.grib2 2026-04-28 20:57 517K
20260428T18Z_MSC_RDPS_AirTemp_IsbL-0950_RLatLon0.09_PT055H.grib2 2026-04-28 20:57 517K
20260428T18Z_MSC_RDPS_AirTemp_IsbL-0970_RLatLon0.09_PT055H.grib2 2026-04-28 20:57 511K
20260428T18Z_MSC_RDPS_AirTemp_IsbL-0985_RLatLon0.09_PT055H.grib2 2026-04-28 20:57 503K
20260428T18Z_MSC_RDPS_AirTemp_IsbL-1000_RLatLon0.09_PT055H.grib2 2026-04-28 20:57 491K
20260428T18Z_MSC_RDPS_AirTemp_IsbL-1015_RLatLon0.09_PT055H.grib2 2026-04-28 20:57 486K
20260428T18Z_MSC_RDPS_Albedo_Sfc_RLatLon0.09_PT055H.grib2 2026-04-28 20:57 159K
20260428T18Z_MSC_RDPS_CAPE_Sfc_RLatLon0.09_PT055H.grib2 2026-04-28 20:57 1.7M
20260428T18Z_MSC_RDPS_CIN_Sfc_RLatLon0.09_PT055H.grib2 2026-04-28 20:57 1.2M
20260428T18Z_MSC_RDPS_CloudWater_EAtm_RLatLon0.09_PT055H.grib2 2026-04-28 20:57 223K
20260428T18Z_MSC_RDPS_ConvectivePrecip-Accum_Sfc_RLatLon0.09_PT055H.grib2 2026-04-28 20:57 1.1M
20260428T18Z_MSC_RDPS_DewPointDepression_AGL-2m_RLatLon0.09_PT055H.grib2 2026-04-28 20:57 404K
20260428T18Z_MSC_RDPS_DewPointDepression_IsbL-0001_RLatLon0.09_PT055H.grib2 2026-04-28 20:57 193
20260428T18Z_MSC_RDPS_DewPointDepression_IsbL-0005_RLatLon0.09_PT055H.grib2 2026-04-28 20:57 193
20260428T18Z_MSC_RDPS_DewPointDepression_IsbL-0010_RLatLon0.09_PT055H.grib2 2026-04-28 20:57 193
20260428T18Z_MSC_RDPS_DewPointDepression_IsbL-0020_RLatLon0.09_PT055H.grib2 2026-04-28 20:57 193
20260428T18Z_MSC_RDPS_DewPointDepression_IsbL-0030_RLatLon0.09_PT055H.grib2 2026-04-28 20:57 193
20260428T18Z_MSC_RDPS_DewPointDepression_IsbL-0050_RLatLon0.09_PT055H.grib2 2026-04-28 20:57 79K
20260428T18Z_MSC_RDPS_DewPointDepression_IsbL-0100_RLatLon0.09_PT055H.grib2 2026-04-28 20:57 127K
20260428T18Z_MSC_RDPS_DewPointDepression_IsbL-0150_RLatLon0.09_PT055H.grib2 2026-04-28 20:57 150K
20260428T18Z_MSC_RDPS_DewPointDepression_IsbL-0175_RLatLon0.09_PT055H.grib2 2026-04-28 20:57 181K
20260428T18Z_MSC_RDPS_DewPointDepression_IsbL-0200_RLatLon0.09_PT055H.grib2 2026-04-28 20:57 219K
20260428T18Z_MSC_RDPS_DewPointDepression_IsbL-0225_RLatLon0.09_PT055H.grib2 2026-04-28 20:57 264K
20260428T18Z_MSC_RDPS_DewPointDepression_IsbL-0250_RLatLon0.09_PT055H.grib2 2026-04-28 20:57 303K
20260428T18Z_MSC_RDPS_DewPointDepression_IsbL-0275_RLatLon0.09_PT055H.grib2 2026-04-28 20:57 310K
20260428T18Z_MSC_RDPS_DewPointDepression_IsbL-0300_RLatLon0.09_PT055H.grib2 2026-04-28 20:57 330K
20260428T18Z_MSC_RDPS_DewPointDepression_IsbL-0350_RLatLon0.09_PT055H.grib2 2026-04-28 20:57 336K
20260428T18Z_MSC_RDPS_DewPointDepression_IsbL-0400_RLatLon0.09_PT055H.grib2 2026-04-28 20:57 343K
20260428T18Z_MSC_RDPS_DewPointDepression_IsbL-0450_RLatLon0.09_PT055H.grib2 2026-04-28 20:57 352K
20260428T18Z_MSC_RDPS_DewPointDepression_IsbL-0500_RLatLon0.09_PT055H.grib2 2026-04-28 20:57 354K
20260428T18Z_MSC_RDPS_DewPointDepression_IsbL-0550_RLatLon0.09_PT055H.grib2 2026-04-28 20:57 365K
20260428T18Z_MSC_RDPS_DewPointDepression_IsbL-0600_RLatLon0.09_PT055H.grib2 2026-04-28 20:57 381K
20260428T18Z_MSC_RDPS_DewPointDepression_IsbL-0650_RLatLon0.09_PT055H.grib2 2026-04-28 20:57 389K
20260428T18Z_MSC_RDPS_DewPointDepression_IsbL-0700_RLatLon0.09_PT055H.grib2 2026-04-28 20:57 398K
20260428T18Z_MSC_RDPS_DewPointDepression_IsbL-0750_RLatLon0.09_PT055H.grib2 2026-04-28 20:57 418K
20260428T18Z_MSC_RDPS_DewPointDepression_IsbL-0800_RLatLon0.09_PT055H.grib2 2026-04-28 20:57 446K
20260428T18Z_MSC_RDPS_DewPointDepression_IsbL-0850_RLatLon0.09_PT055H.grib2 2026-04-28 20:57 467K
20260428T18Z_MSC_RDPS_DewPointDepression_IsbL-0875_RLatLon0.09_PT055H.grib2 2026-04-28 20:57 473K
20260428T18Z_MSC_RDPS_DewPointDepression_IsbL-0900_RLatLon0.09_PT055H.grib2 2026-04-28 20:57 467K
20260428T18Z_MSC_RDPS_DewPointDepression_IsbL-0925_RLatLon0.09_PT055H.grib2 2026-04-28 20:57 451K
20260428T18Z_MSC_RDPS_DewPointDepression_IsbL-0950_RLatLon0.09_PT055H.grib2 2026-04-28 20:57 442K
20260428T18Z_MSC_RDPS_DewPointDepression_IsbL-0970_RLatLon0.09_PT055H.grib2 2026-04-28 20:57 433K
20260428T18Z_MSC_RDPS_DewPointDepression_IsbL-0985_RLatLon0.09_PT055H.grib2 2026-04-28 20:57 428K
20260428T18Z_MSC_RDPS_DewPointDepression_IsbL-1000_RLatLon0.09_PT055H.grib2 2026-04-28 20:57 422K
20260428T18Z_MSC_RDPS_DewPointDepression_IsbL-1015_RLatLon0.09_PT055H.grib2 2026-04-28 20:57 411K
20260428T18Z_MSC_RDPS_DewPoint_AGL-2m_RLatLon0.09_PT055H.grib2 2026-04-28 20:57 308K
20260428T18Z_MSC_RDPS_DownwardLongwaveRadiationFlux-Accum_Sfc_RLatLon0.09_PT055H.grib2 2026-04-28 20:57 380K
20260428T18Z_MSC_RDPS_DownwardShortwaveRadiationFlux-Accum_NTAtm_RLatLon0.09_PT055H.grib2 2026-04-28 20:57 114K
20260428T18Z_MSC_RDPS_DownwardShortwaveRadiationFlux-Accum_Sfc_RLatLon0.09_PT055H.grib2 2026-04-28 20:57 586K
20260428T18Z_MSC_RDPS_FreezingRain-Accum1h_Sfc_RLatLon0.09_PT055H.grib2 2026-04-28 20:57 20K
20260428T18Z_MSC_RDPS_FreezingRain-Accum_Sfc_RLatLon0.09_PT055H.grib2 2026-04-28 20:57 181K
20260428T18Z_MSC_RDPS_GeopotentialHeight_IsbL-0001_RLatLon0.09_PT055H.grib2 2026-04-28 20:57 308K
20260428T18Z_MSC_RDPS_GeopotentialHeight_IsbL-0005_RLatLon0.09_PT055H.grib2 2026-04-28 20:57 333K
20260428T18Z_MSC_RDPS_GeopotentialHeight_IsbL-0010_RLatLon0.09_PT055H.grib2 2026-04-28 20:57 301K
20260428T18Z_MSC_RDPS_GeopotentialHeight_IsbL-0020_RLatLon0.09_PT055H.grib2 2026-04-28 20:57 300K
20260428T18Z_MSC_RDPS_GeopotentialHeight_IsbL-0030_RLatLon0.09_PT055H.grib2 2026-04-28 20:57 302K
20260428T18Z_MSC_RDPS_GeopotentialHeight_IsbL-0050_RLatLon0.09_PT055H.grib2 2026-04-28 20:57 304K
20260428T18Z_MSC_RDPS_GeopotentialHeight_IsbL-0100_RLatLon0.09_PT055H.grib2 2026-04-28 20:57 282K
20260428T18Z_MSC_RDPS_GeopotentialHeight_IsbL-0150_RLatLon0.09_PT055H.grib2 2026-04-28 20:57 225K
20260428T18Z_MSC_RDPS_GeopotentialHeight_IsbL-0175_RLatLon0.09_PT055H.grib2 2026-04-28 20:57 258K
20260428T18Z_MSC_RDPS_GeopotentialHeight_IsbL-0200_RLatLon0.09_PT055H.grib2 2026-04-28 20:57 262K
20260428T18Z_MSC_RDPS_GeopotentialHeight_IsbL-0225_RLatLon0.09_PT055H.grib2 2026-04-28 20:57 264K
20260428T18Z_MSC_RDPS_GeopotentialHeight_IsbL-0250_RLatLon0.09_PT055H.grib2 2026-04-28 20:57 265K
20260428T18Z_MSC_RDPS_GeopotentialHeight_IsbL-0275_RLatLon0.09_PT055H.grib2 2026-04-28 20:57 264K
20260428T18Z_MSC_RDPS_GeopotentialHeight_IsbL-0300_RLatLon0.09_PT055H.grib2 2026-04-28 20:57 263K
20260428T18Z_MSC_RDPS_GeopotentialHeight_IsbL-0350_RLatLon0.09_PT055H.grib2 2026-04-28 20:57 230K
20260428T18Z_MSC_RDPS_GeopotentialHeight_IsbL-0400_RLatLon0.09_PT055H.grib2 2026-04-28 20:57 227K
20260428T18Z_MSC_RDPS_GeopotentialHeight_IsbL-0450_RLatLon0.09_PT055H.grib2 2026-04-28 20:57 294K
20260428T18Z_MSC_RDPS_GeopotentialHeight_IsbL-0500_RLatLon0.09_PT055H.grib2 2026-04-28 20:57 290K
20260428T18Z_MSC_RDPS_GeopotentialHeight_IsbL-0550_RLatLon0.09_PT055H.grib2 2026-04-28 20:57 286K
20260428T18Z_MSC_RDPS_GeopotentialHeight_IsbL-0600_RLatLon0.09_PT055H.grib2 2026-04-28 20:57 254K
20260428T18Z_MSC_RDPS_GeopotentialHeight_IsbL-0650_RLatLon0.09_PT055H.grib2 2026-04-28 20:57 253K
20260428T18Z_MSC_RDPS_GeopotentialHeight_IsbL-0700_RLatLon0.09_PT055H.grib2 2026-04-28 20:57 333K
20260428T18Z_MSC_RDPS_GeopotentialHeight_IsbL-0750_RLatLon0.09_PT055H.grib2 2026-04-28 20:57 335K
20260428T18Z_MSC_RDPS_GeopotentialHeight_IsbL-0800_RLatLon0.09_PT055H.grib2 2026-04-28 20:57 340K
20260428T18Z_MSC_RDPS_GeopotentialHeight_IsbL-0850_RLatLon0.09_PT055H.grib2 2026-04-28 20:57 347K
20260428T18Z_MSC_RDPS_GeopotentialHeight_IsbL-0875_RLatLon0.09_PT055H.grib2 2026-04-28 20:57 350K
20260428T18Z_MSC_RDPS_GeopotentialHeight_IsbL-0900_RLatLon0.09_PT055H.grib2 2026-04-28 20:57 387K
20260428T18Z_MSC_RDPS_GeopotentialHeight_IsbL-0925_RLatLon0.09_PT055H.grib2 2026-04-28 20:57 389K
20260428T18Z_MSC_RDPS_GeopotentialHeight_IsbL-0950_RLatLon0.09_PT055H.grib2 2026-04-28 20:57 359K
20260428T18Z_MSC_RDPS_GeopotentialHeight_IsbL-0970_RLatLon0.09_PT055H.grib2 2026-04-28 20:57 365K
20260428T18Z_MSC_RDPS_GeopotentialHeight_IsbL-0985_RLatLon0.09_PT055H.grib2 2026-04-28 20:57 373K
20260428T18Z_MSC_RDPS_GeopotentialHeight_IsbL-1000_RLatLon0.09_PT055H.grib2 2026-04-28 20:57 384K
20260428T18Z_MSC_RDPS_GeopotentialHeight_IsbL-1015_RLatLon0.09_PT055H.grib2 2026-04-28 20:57 398K
20260428T18Z_MSC_RDPS_Humidex_Sfc_RLatLon0.09_PT055H.grib2 2026-04-28 20:57 2.4M
20260428T18Z_MSC_RDPS_IcePellets-Accum1h_Sfc_RLatLon0.09_PT055H.grib2 2026-04-28 20:57 2.5K
20260428T18Z_MSC_RDPS_IcePellets-Accum_Sfc_RLatLon0.09_PT055H.grib2 2026-04-28 20:57 24K
20260428T18Z_MSC_RDPS_KIndex_Sfc_RLatLon0.09_PT055H.grib2 2026-04-28 20:57 2.4M
20260428T18Z_MSC_RDPS_LatentHeatNetFlux_Sfc_RLatLon0.09_PT055H.grib2 2026-04-28 20:57 331K
20260428T18Z_MSC_RDPS_LiftedIndex-MU-VT_IsbL-0500_RLatLon0.09_PT055H.grib2 2026-04-28 20:57 2.4M
20260428T18Z_MSC_RDPS_NetLongwaveRadiationFlux-Accum_Sfc_RLatLon0.09_PT055H.grib2 2026-04-28 20:57 563K
20260428T18Z_MSC_RDPS_NetShortwaveRadiationFlux-Accum_Sfc_RLatLon0.09_PT055H.grib2 2026-04-28 20:57 587K
20260428T18Z_MSC_RDPS_PlanetaryBoundaryLayerHeight_Sfc_RLatLon0.09_PT055H.grib2 2026-04-28 20:57 1.0M
20260428T18Z_MSC_RDPS_Precip-Accum1h_Sfc_RLatLon0.09_PT055H.grib2 2026-04-28 20:57 1.1M
20260428T18Z_MSC_RDPS_Precip-Accum_Sfc_RLatLon0.09_PT055H.grib2 2026-04-28 20:57 2.1M
20260428T18Z_MSC_RDPS_PrecipRate_Sfc_RLatLon0.09_PT055H.grib2 2026-04-28 20:57 177K
20260428T18Z_MSC_RDPS_PrecipType-Instant_Sfc_RLatLon0.09_PT055H.grib2 2026-04-28 20:57 566K
20260428T18Z_MSC_RDPS_Pressure-Trend3h_Sfc_RLatLon0.09_PT055H.grib2 2026-04-28 20:57 1.2M
20260428T18Z_MSC_RDPS_Pressure_MSL_RLatLon0.09_PT055H.grib2 2026-04-28 20:57 321K
20260428T18Z_MSC_RDPS_Pressure_PVU-1.5_RLatLon0.09_PT055H.grib2 2026-04-28 20:57 2.5M
20260428T18Z_MSC_RDPS_Pressure_PVU-1_RLatLon0.09_PT055H.grib2 2026-04-28 20:57 2.4M
20260428T18Z_MSC_RDPS_Pressure_PVU-2_RLatLon0.09_PT055H.grib2 2026-04-28 20:57 2.4M
20260428T18Z_MSC_RDPS_Pressure_Sfc_RLatLon0.09_PT055H.grib2 2026-04-28 20:57 497K
20260428T18Z_MSC_RDPS_RadiativeTemp_Sfc_RLatLon0.09_PT055H.grib2 2026-04-28 20:57 310K
20260428T18Z_MSC_RDPS_Rain-Accum1h_Sfc_RLatLon0.09_PT055H.grib2 2026-04-28 20:57 582K
20260428T18Z_MSC_RDPS_Rain-Accum_Sfc_RLatLon0.09_PT055H.grib2 2026-04-28 20:57 1.6M
20260428T18Z_MSC_RDPS_RelativeHumidity_AGL-2m_RLatLon0.09_PT055H.grib2 2026-04-28 20:57 1.0M
20260428T18Z_MSC_RDPS_RelativeHumidity_IsbL-0010_RLatLon0.09_PT055H.grib2 2026-04-28 20:57 624K
20260428T18Z_MSC_RDPS_RelativeHumidity_IsbL-0020_RLatLon0.09_PT055H.grib2 2026-04-28 20:57 679K
20260428T18Z_MSC_RDPS_RelativeHumidity_IsbL-0030_RLatLon0.09_PT055H.grib2 2026-04-28 20:57 605K
20260428T18Z_MSC_RDPS_RelativeHumidity_IsbL-0050_RLatLon0.09_PT055H.grib2 2026-04-28 20:57 367K
20260428T18Z_MSC_RDPS_RelativeHumidity_IsbL-0100_RLatLon0.09_PT055H.grib2 2026-04-28 20:57 279K
20260428T18Z_MSC_RDPS_RelativeHumidity_IsbL-0150_RLatLon0.09_PT055H.grib2 2026-04-28 20:57 408K
20260428T18Z_MSC_RDPS_RelativeHumidity_IsbL-0175_RLatLon0.09_PT055H.grib2 2026-04-28 20:57 474K
20260428T18Z_MSC_RDPS_RelativeHumidity_IsbL-0200_RLatLon0.09_PT055H.grib2 2026-04-28 20:57 558K
20260428T18Z_MSC_RDPS_RelativeHumidity_IsbL-0225_RLatLon0.09_PT055H.grib2 2026-04-28 20:57 630K
20260428T18Z_MSC_RDPS_RelativeHumidity_IsbL-0250_RLatLon0.09_PT055H.grib2 2026-04-28 20:57 702K
20260428T18Z_MSC_RDPS_RelativeHumidity_IsbL-0275_RLatLon0.09_PT055H.grib2 2026-04-28 20:57 728K
20260428T18Z_MSC_RDPS_RelativeHumidity_IsbL-0300_RLatLon0.09_PT055H.grib2 2026-04-28 20:57 774K
20260428T18Z_MSC_RDPS_RelativeHumidity_IsbL-0350_RLatLon0.09_PT055H.grib2 2026-04-28 20:57 793K
20260428T18Z_MSC_RDPS_RelativeHumidity_IsbL-0400_RLatLon0.09_PT055H.grib2 2026-04-28 20:57 798K
20260428T18Z_MSC_RDPS_RelativeHumidity_IsbL-0450_RLatLon0.09_PT055H.grib2 2026-04-28 20:57 805K
20260428T18Z_MSC_RDPS_RelativeHumidity_IsbL-0500_RLatLon0.09_PT055H.grib2 2026-04-28 20:57 806K
20260428T18Z_MSC_RDPS_RelativeHumidity_IsbL-0550_RLatLon0.09_PT055H.grib2 2026-04-28 20:57 823K
20260428T18Z_MSC_RDPS_RelativeHumidity_IsbL-0600_RLatLon0.09_PT055H.grib2 2026-04-28 20:57 851K
20260428T18Z_MSC_RDPS_RelativeHumidity_IsbL-0650_RLatLon0.09_PT055H.grib2 2026-04-28 20:57 867K
20260428T18Z_MSC_RDPS_RelativeHumidity_IsbL-0700_RLatLon0.09_PT055H.grib2 2026-04-28 20:57 898K
20260428T18Z_MSC_RDPS_RelativeHumidity_IsbL-0750_RLatLon0.09_PT055H.grib2 2026-04-28 20:57 938K
20260428T18Z_MSC_RDPS_RelativeHumidity_IsbL-0800_RLatLon0.09_PT055H.grib2 2026-04-28 20:57 1.0M
20260428T18Z_MSC_RDPS_RelativeHumidity_IsbL-0850_RLatLon0.09_PT055H.grib2 2026-04-28 20:57 1.0M
20260428T18Z_MSC_RDPS_RelativeHumidity_IsbL-0875_RLatLon0.09_PT055H.grib2 2026-04-28 20:57 1.0M
20260428T18Z_MSC_RDPS_RelativeHumidity_IsbL-0900_RLatLon0.09_PT055H.grib2 2026-04-28 20:57 1.1M
20260428T18Z_MSC_RDPS_RelativeHumidity_IsbL-0925_RLatLon0.09_PT055H.grib2 2026-04-28 20:57 1.1M
20260428T18Z_MSC_RDPS_RelativeHumidity_IsbL-0950_RLatLon0.09_PT055H.grib2 2026-04-28 20:57 1.1M
20260428T18Z_MSC_RDPS_RelativeHumidity_IsbL-0970_RLatLon0.09_PT055H.grib2 2026-04-28 20:57 1.0M
20260428T18Z_MSC_RDPS_RelativeHumidity_IsbL-0985_RLatLon0.09_PT055H.grib2 2026-04-28 20:57 1.0M
20260428T18Z_MSC_RDPS_RelativeHumidity_IsbL-1000_RLatLon0.09_PT055H.grib2 2026-04-28 20:57 1.0M
20260428T18Z_MSC_RDPS_RelativeHumidity_IsbL-1015_RLatLon0.09_PT055H.grib2 2026-04-28 20:57 1.0M
20260428T18Z_MSC_RDPS_Runoff-Accum_Sfc_RLatLon0.09_PT055H.grib2 2026-04-28 20:57 56K
20260428T18Z_MSC_RDPS_SWEATIndex_Sfc_RLatLon0.09_PT055H.grib2 2026-04-28 20:57 2.4M
20260428T18Z_MSC_RDPS_SeeingIndex_EAtm_RLatLon0.09_PT055H.grib2 2026-04-28 20:57 1.0M
20260428T18Z_MSC_RDPS_SensibleHeatNetFlux_Sfc_RLatLon0.09_PT055H.grib2 2026-04-28 20:57 293K
20260428T18Z_MSC_RDPS_ShowalterIndex_IsbL-0500_RLatLon0.09_PT055H.grib2 2026-04-28 20:57 2.6M
20260428T18Z_MSC_RDPS_SkyTransparencyIndex_EAtm_RLatLon0.09_PT055H.grib2 2026-04-28 20:57 700K
20260428T18Z_MSC_RDPS_Snow-Accum1h_Sfc_RLatLon0.09_PT055H.grib2 2026-04-28 20:57 454K
20260428T18Z_MSC_RDPS_Snow-Accum_Sfc_RLatLon0.09_PT055H.grib2 2026-04-28 20:57 750K
20260428T18Z_MSC_RDPS_SnowDensity_Sfc_RLatLon0.09_PT055H.grib2 2026-04-28 20:57 180K
20260428T18Z_MSC_RDPS_SnowDepth_Sfc_RLatLon0.09_PT055H.grib2 2026-04-28 20:57 681K
20260428T18Z_MSC_RDPS_SoilTemp_DBS-0to10cm_RLatLon0.09_PT055H.grib2 2026-04-28 20:57 243K
20260428T18Z_MSC_RDPS_SoilTemp_Sfc_RLatLon0.09_PT055H.grib2 2026-04-28 20:57 284K
20260428T18Z_MSC_RDPS_SoilVolumetricIceContent_Sfc_RLatLon0.09_PT055H.grib2 2026-04-28 20:57 163K
20260428T18Z_MSC_RDPS_SoilVolumetricWaterContent_DBS-0to10cm_RLatLon0.09_PT055H.grib2 2026-04-28 20:57 269K
20260428T18Z_MSC_RDPS_SoilVolumetricWaterContent_DBS-0to1cm_RLatLon0.09_PT055H.grib2 2026-04-28 20:57 337K
20260428T18Z_MSC_RDPS_SpecificHumidity_AGL-120m_RLatLon0.09_PT055H.grib2 2026-04-28 20:57 484K
20260428T18Z_MSC_RDPS_SpecificHumidity_AGL-2m_RLatLon0.09_PT055H.grib2 2026-04-28 20:57 656K
20260428T18Z_MSC_RDPS_SpecificHumidity_AGL-40m_RLatLon0.09_PT055H.grib2 2026-04-28 20:57 491K
20260428T18Z_MSC_RDPS_SpecificHumidity_AGL-80m_RLatLon0.09_PT055H.grib2 2026-04-28 20:57 486K
20260428T18Z_MSC_RDPS_SpecificHumidity_IsbL-0001_RLatLon0.09_PT055H.grib2 2026-04-28 20:57 359K
20260428T18Z_MSC_RDPS_SpecificHumidity_IsbL-0005_RLatLon0.09_PT055H.grib2 2026-04-28 20:57 356K
20260428T18Z_MSC_RDPS_SpecificHumidity_IsbL-0010_RLatLon0.09_PT055H.grib2 2026-04-28 20:57 393K
20260428T18Z_MSC_RDPS_SpecificHumidity_IsbL-0020_RLatLon0.09_PT055H.grib2 2026-04-28 20:57 382K
20260428T18Z_MSC_RDPS_SpecificHumidity_IsbL-0030_RLatLon0.09_PT055H.grib2 2026-04-28 20:57 475K
20260428T18Z_MSC_RDPS_SpecificHumidity_IsbL-0050_RLatLon0.09_PT055H.grib2 2026-04-28 20:57 449K
20260428T18Z_MSC_RDPS_SpecificHumidity_IsbL-0100_RLatLon0.09_PT055H.grib2 2026-04-28 20:57 533K
20260428T18Z_MSC_RDPS_SpecificHumidity_IsbL-0150_RLatLon0.09_PT055H.grib2 2026-04-28 20:57 454K
20260428T18Z_MSC_RDPS_SpecificHumidity_IsbL-0175_RLatLon0.09_PT055H.grib2 2026-04-28 20:57 431K
20260428T18Z_MSC_RDPS_SpecificHumidity_IsbL-0200_RLatLon0.09_PT055H.grib2 2026-04-28 20:57 467K
20260428T18Z_MSC_RDPS_SpecificHumidity_IsbL-0225_RLatLon0.09_PT055H.grib2 2026-04-28 20:57 457K
20260428T18Z_MSC_RDPS_SpecificHumidity_IsbL-0250_RLatLon0.09_PT055H.grib2 2026-04-28 20:57 565K
20260428T18Z_MSC_RDPS_SpecificHumidity_IsbL-0275_RLatLon0.09_PT055H.grib2 2026-04-28 20:57 480K
20260428T18Z_MSC_RDPS_SpecificHumidity_IsbL-0300_RLatLon0.09_PT055H.grib2 2026-04-28 20:57 456K
20260428T18Z_MSC_RDPS_SpecificHumidity_IsbL-0350_RLatLon0.09_PT055H.grib2 2026-04-28 20:57 449K
20260428T18Z_MSC_RDPS_SpecificHumidity_IsbL-0400_RLatLon0.09_PT055H.grib2 2026-04-28 20:57 524K
20260428T18Z_MSC_RDPS_SpecificHumidity_IsbL-0450_RLatLon0.09_PT055H.grib2 2026-04-28 20:57 577K
20260428T18Z_MSC_RDPS_SpecificHumidity_IsbL-0500_RLatLon0.09_PT055H.grib2 2026-04-28 20:57 512K
20260428T18Z_MSC_RDPS_SpecificHumidity_IsbL-0550_RLatLon0.09_PT055H.grib2 2026-04-28 20:57 585K
20260428T18Z_MSC_RDPS_SpecificHumidity_IsbL-0600_RLatLon0.09_PT055H.grib2 2026-04-28 20:57 644K
20260428T18Z_MSC_RDPS_SpecificHumidity_IsbL-0650_RLatLon0.09_PT055H.grib2 2026-04-28 20:57 562K
20260428T18Z_MSC_RDPS_SpecificHumidity_IsbL-0700_RLatLon0.09_PT055H.grib2 2026-04-28 20:57 604K
20260428T18Z_MSC_RDPS_SpecificHumidity_IsbL-0750_RLatLon0.09_PT055H.grib2 2026-04-28 20:57 661K
20260428T18Z_MSC_RDPS_SpecificHumidity_IsbL-0800_RLatLon0.09_PT055H.grib2 2026-04-28 20:57 735K
20260428T18Z_MSC_RDPS_SpecificHumidity_IsbL-0850_RLatLon0.09_PT055H.grib2 2026-04-28 20:57 800K
20260428T18Z_MSC_RDPS_SpecificHumidity_IsbL-0875_RLatLon0.09_PT055H.grib2 2026-04-28 20:57 826K
20260428T18Z_MSC_RDPS_SpecificHumidity_IsbL-0900_RLatLon0.09_PT055H.grib2 2026-04-28 20:57 843K
20260428T18Z_MSC_RDPS_SpecificHumidity_IsbL-0925_RLatLon0.09_PT055H.grib2 2026-04-28 20:57 846K
20260428T18Z_MSC_RDPS_SpecificHumidity_IsbL-0950_RLatLon0.09_PT055H.grib2 2026-04-28 20:57 704K
20260428T18Z_MSC_RDPS_SpecificHumidity_IsbL-0970_RLatLon0.09_PT055H.grib2 2026-04-28 20:57 693K
20260428T18Z_MSC_RDPS_SpecificHumidity_IsbL-0985_RLatLon0.09_PT055H.grib2 2026-04-28 20:57 682K
20260428T18Z_MSC_RDPS_SpecificHumidity_IsbL-1000_RLatLon0.09_PT055H.grib2 2026-04-28 20:57 674K
20260428T18Z_MSC_RDPS_SpecificHumidity_IsbL-1015_RLatLon0.09_PT055H.grib2 2026-04-28 20:57 665K
20260428T18Z_MSC_RDPS_SpecificHumidity_Sfc_RLatLon0.09_PT055H.grib2 2026-04-28 20:57 327K
20260428T18Z_MSC_RDPS_StormRelativeHelicity_EtaL-10000_RLatLon0.09_PT055H.grib2 2026-04-28 20:57 1.1M
20260428T18Z_MSC_RDPS_StormSeverityIndex_EtaL-10000_RLatLon0.09_PT055H.grib2 2026-04-28 20:57 1.2M
20260428T18Z_MSC_RDPS_Thickness_IsbL-0850to0700_RLatLon0.09_PT055H.grib2 2026-04-28 20:57 175K
20260428T18Z_MSC_RDPS_Thickness_IsbL-1000to0500_RLatLon0.09_PT055H.grib2 2026-04-28 20:57 198K
20260428T18Z_MSC_RDPS_Thickness_IsbL-1000to0850_RLatLon0.09_PT055H.grib2 2026-04-28 20:57 183K
20260428T18Z_MSC_RDPS_TotalCloudCover_Sfc_RLatLon0.09_PT055H.grib2 2026-04-28 20:57 654K
20260428T18Z_MSC_RDPS_TotalTotalsIndex_Sfc_RLatLon0.09_PT055H.grib2 2026-04-28 20:57 2.3M
20260428T18Z_MSC_RDPS_UVIndex-ClearSky_Sfc_RLatLon0.09_PT055H.grib2 2026-04-28 20:57 142K
20260428T18Z_MSC_RDPS_UVIndex_Sfc_RLatLon0.09_PT055H.grib2 2026-04-28 20:57 317K
20260428T18Z_MSC_RDPS_UpwardLongwaveRadiationFlux_NTAtm_RLatLon0.09_PT055H.grib2 2026-04-28 20:57 494K
20260428T18Z_MSC_RDPS_UpwardShortwaveRadiationFlux_NTAtm_RLatLon0.09_PT055H.grib2 2026-04-28 20:57 287K
20260428T18Z_MSC_RDPS_VerticalVelocity_IsbL-0250_RLatLon0.09_PT055H.grib2 2026-04-28 20:57 551K
20260428T18Z_MSC_RDPS_VerticalVelocity_IsbL-0500_RLatLon0.09_PT055H.grib2 2026-04-28 20:57 542K
20260428T18Z_MSC_RDPS_VerticalVelocity_IsbL-0700_RLatLon0.09_PT055H.grib2 2026-04-28 20:57 593K
20260428T18Z_MSC_RDPS_VerticalVelocity_IsbL-0850_RLatLon0.09_PT055H.grib2 2026-04-28 20:57 637K
20260428T18Z_MSC_RDPS_VerticalWindShear_EtaL-6500_RLatLon0.09_PT055H.grib2 2026-04-28 20:57 1.2M
20260428T18Z_MSC_RDPS_WindChill_Sfc_RLatLon0.09_PT055H.grib2 2026-04-28 20:57 1.1M
20260428T18Z_MSC_RDPS_WindDir_AGL-10m_RLatLon0.09_PT055H.grib2 2026-04-28 20:57 959K
20260428T18Z_MSC_RDPS_WindDir_AGL-120m_RLatLon0.09_PT055H.grib2 2026-04-28 20:57 604K
20260428T18Z_MSC_RDPS_WindDir_AGL-40m_RLatLon0.09_PT055H.grib2 2026-04-28 20:57 631K
20260428T18Z_MSC_RDPS_WindDir_AGL-80m_RLatLon0.09_PT055H.grib2 2026-04-28 20:57 614K
20260428T18Z_MSC_RDPS_WindDir_IsbL-0001_RLatLon0.09_PT055H.grib2 2026-04-28 20:57 326K
20260428T18Z_MSC_RDPS_WindDir_IsbL-0005_RLatLon0.09_PT055H.grib2 2026-04-28 20:57 376K
20260428T18Z_MSC_RDPS_WindDir_IsbL-0010_RLatLon0.09_PT055H.grib2 2026-04-28 20:57 394K
20260428T18Z_MSC_RDPS_WindDir_IsbL-0020_RLatLon0.09_PT055H.grib2 2026-04-28 20:57 427K
20260428T18Z_MSC_RDPS_WindDir_IsbL-0030_RLatLon0.09_PT055H.grib2 2026-04-28 20:57 419K
20260428T18Z_MSC_RDPS_WindDir_IsbL-0050_RLatLon0.09_PT055H.grib2 2026-04-28 20:57 420K
20260428T18Z_MSC_RDPS_WindDir_IsbL-0100_RLatLon0.09_PT055H.grib2 2026-04-28 20:57 433K
20260428T18Z_MSC_RDPS_WindDir_IsbL-0150_RLatLon0.09_PT055H.grib2 2026-04-28 20:57 429K
20260428T18Z_MSC_RDPS_WindDir_IsbL-0175_RLatLon0.09_PT055H.grib2 2026-04-28 20:57 454K
20260428T18Z_MSC_RDPS_WindDir_IsbL-0200_RLatLon0.09_PT055H.grib2 2026-04-28 20:57 462K
20260428T18Z_MSC_RDPS_WindDir_IsbL-0225_RLatLon0.09_PT055H.grib2 2026-04-28 20:57 464K
20260428T18Z_MSC_RDPS_WindDir_IsbL-0250_RLatLon0.09_PT055H.grib2 2026-04-28 20:57 460K
20260428T18Z_MSC_RDPS_WindDir_IsbL-0275_RLatLon0.09_PT055H.grib2 2026-04-28 20:57 481K
20260428T18Z_MSC_RDPS_WindDir_IsbL-0300_RLatLon0.09_PT055H.grib2 2026-04-28 20:57 480K
20260428T18Z_MSC_RDPS_WindDir_IsbL-0350_RLatLon0.09_PT055H.grib2 2026-04-28 20:57 502K
20260428T18Z_MSC_RDPS_WindDir_IsbL-0400_RLatLon0.09_PT055H.grib2 2026-04-28 20:57 511K
20260428T18Z_MSC_RDPS_WindDir_IsbL-0450_RLatLon0.09_PT055H.grib2 2026-04-28 20:57 522K
20260428T18Z_MSC_RDPS_WindDir_IsbL-0500_RLatLon0.09_PT055H.grib2 2026-04-28 20:57 537K
20260428T18Z_MSC_RDPS_WindDir_IsbL-0550_RLatLon0.09_PT055H.grib2 2026-04-28 20:57 558K
20260428T18Z_MSC_RDPS_WindDir_IsbL-0600_RLatLon0.09_PT055H.grib2 2026-04-28 20:57 588K
20260428T18Z_MSC_RDPS_WindDir_IsbL-0650_RLatLon0.09_PT055H.grib2 2026-04-28 20:57 630K
20260428T18Z_MSC_RDPS_WindDir_IsbL-0700_RLatLon0.09_PT055H.grib2 2026-04-28 20:57 680K
20260428T18Z_MSC_RDPS_WindDir_IsbL-0750_RLatLon0.09_PT055H.grib2 2026-04-28 20:57 729K
20260428T18Z_MSC_RDPS_WindDir_IsbL-0800_RLatLon0.09_PT055H.grib2 2026-04-28 20:57 788K
20260428T18Z_MSC_RDPS_WindDir_IsbL-0850_RLatLon0.09_PT055H.grib2 2026-04-28 20:57 850K
20260428T18Z_MSC_RDPS_WindDir_IsbL-0875_RLatLon0.09_PT055H.grib2 2026-04-28 20:57 875K
20260428T18Z_MSC_RDPS_WindDir_IsbL-0900_RLatLon0.09_PT055H.grib2 2026-04-28 20:57 894K
20260428T18Z_MSC_RDPS_WindDir_IsbL-0925_RLatLon0.09_PT055H.grib2 2026-04-28 20:57 904K
20260428T18Z_MSC_RDPS_WindDir_IsbL-0950_RLatLon0.09_PT055H.grib2 2026-04-28 20:57 908K
20260428T18Z_MSC_RDPS_WindDir_IsbL-0970_RLatLon0.09_PT055H.grib2 2026-04-28 20:57 915K
20260428T18Z_MSC_RDPS_WindDir_IsbL-0985_RLatLon0.09_PT055H.grib2 2026-04-28 20:57 925K
20260428T18Z_MSC_RDPS_WindDir_IsbL-1000_RLatLon0.09_PT055H.grib2 2026-04-28 20:57 938K
20260428T18Z_MSC_RDPS_WindDir_IsbL-1015_RLatLon0.09_PT055H.grib2 2026-04-28 20:57 953K
20260428T18Z_MSC_RDPS_WindGust-Max_AGL-10m_RLatLon0.09_PT055H.grib2 2026-04-28 20:57 1.0M
20260428T18Z_MSC_RDPS_WindGust-Min_AGL-10m_RLatLon0.09_PT055H.grib2 2026-04-28 20:57 962K
20260428T18Z_MSC_RDPS_WindGust_AGL-10m_RLatLon0.09_PT055H.grib2 2026-04-28 20:57 1.0M
20260428T18Z_MSC_RDPS_WindSpeed_AGL-10m_RLatLon0.09_PT055H.grib2 2026-04-28 20:57 828K
20260428T18Z_MSC_RDPS_WindSpeed_AGL-120m_RLatLon0.09_PT055H.grib2 2026-04-28 20:57 528K
20260428T18Z_MSC_RDPS_WindSpeed_AGL-40m_RLatLon0.09_PT055H.grib2 2026-04-28 20:57 531K
20260428T18Z_MSC_RDPS_WindSpeed_AGL-80m_RLatLon0.09_PT055H.grib2 2026-04-28 20:57 529K
20260428T18Z_MSC_RDPS_WindSpeed_IsbL-0001_RLatLon0.09_PT055H.grib2 2026-04-28 20:57 253K
20260428T18Z_MSC_RDPS_WindSpeed_IsbL-0005_RLatLon0.09_PT055H.grib2 2026-04-28 20:57 385K
20260428T18Z_MSC_RDPS_WindSpeed_IsbL-0010_RLatLon0.09_PT055H.grib2 2026-04-28 20:57 403K
20260428T18Z_MSC_RDPS_WindSpeed_IsbL-0020_RLatLon0.09_PT055H.grib2 2026-04-28 20:57 328K
20260428T18Z_MSC_RDPS_WindSpeed_IsbL-0030_RLatLon0.09_PT055H.grib2 2026-04-28 20:57 327K
20260428T18Z_MSC_RDPS_WindSpeed_IsbL-0050_RLatLon0.09_PT055H.grib2 2026-04-28 20:57 451K
20260428T18Z_MSC_RDPS_WindSpeed_IsbL-0100_RLatLon0.09_PT055H.grib2 2026-04-28 20:57 476K
20260428T18Z_MSC_RDPS_WindSpeed_IsbL-0150_RLatLon0.09_PT055H.grib2 2026-04-28 20:57 380K
20260428T18Z_MSC_RDPS_WindSpeed_IsbL-0175_RLatLon0.09_PT055H.grib2 2026-04-28 20:57 427K
20260428T18Z_MSC_RDPS_WindSpeed_IsbL-0200_RLatLon0.09_PT055H.grib2 2026-04-28 20:57 447K
20260428T18Z_MSC_RDPS_WindSpeed_IsbL-0225_RLatLon0.09_PT055H.grib2 2026-04-28 20:57 453K
20260428T18Z_MSC_RDPS_WindSpeed_IsbL-0250_RLatLon0.09_PT055H.grib2 2026-04-28 20:57 455K
20260428T18Z_MSC_RDPS_WindSpeed_IsbL-0275_RLatLon0.09_PT055H.grib2 2026-04-28 20:57 470K
20260428T18Z_MSC_RDPS_WindSpeed_IsbL-0300_RLatLon0.09_PT055H.grib2 2026-04-28 20:57 468K
20260428T18Z_MSC_RDPS_WindSpeed_IsbL-0350_RLatLon0.09_PT055H.grib2 2026-04-28 20:57 479K
20260428T18Z_MSC_RDPS_WindSpeed_IsbL-0400_RLatLon0.09_PT055H.grib2 2026-04-28 20:57 480K
20260428T18Z_MSC_RDPS_WindSpeed_IsbL-0450_RLatLon0.09_PT055H.grib2 2026-04-28 20:57 481K
20260428T18Z_MSC_RDPS_WindSpeed_IsbL-0500_RLatLon0.09_PT055H.grib2 2026-04-28 20:57 466K
20260428T18Z_MSC_RDPS_WindSpeed_IsbL-0550_RLatLon0.09_PT055H.grib2 2026-04-28 20:57 465K
20260428T18Z_MSC_RDPS_WindSpeed_IsbL-0600_RLatLon0.09_PT055H.grib2 2026-04-28 20:57 473K
20260428T18Z_MSC_RDPS_WindSpeed_IsbL-0650_RLatLon0.09_PT055H.grib2 2026-04-28 20:57 611K
20260428T18Z_MSC_RDPS_WindSpeed_IsbL-0700_RLatLon0.09_PT055H.grib2 2026-04-28 20:57 638K
20260428T18Z_MSC_RDPS_WindSpeed_IsbL-0750_RLatLon0.09_PT055H.grib2 2026-04-28 20:57 711K
20260428T18Z_MSC_RDPS_WindSpeed_IsbL-0800_RLatLon0.09_PT055H.grib2 2026-04-28 20:57 752K
20260428T18Z_MSC_RDPS_WindSpeed_IsbL-0850_RLatLon0.09_PT055H.grib2 2026-04-28 20:57 802K
20260428T18Z_MSC_RDPS_WindSpeed_IsbL-0875_RLatLon0.09_PT055H.grib2 2026-04-28 20:57 822K
20260428T18Z_MSC_RDPS_WindSpeed_IsbL-0900_RLatLon0.09_PT055H.grib2 2026-04-28 20:57 840K
20260428T18Z_MSC_RDPS_WindSpeed_IsbL-0925_RLatLon0.09_PT055H.grib2 2026-04-28 20:57 851K
20260428T18Z_MSC_RDPS_WindSpeed_IsbL-0950_RLatLon0.09_PT055H.grib2 2026-04-28 20:57 854K
20260428T18Z_MSC_RDPS_WindSpeed_IsbL-0970_RLatLon0.09_PT055H.grib2 2026-04-28 20:57 855K
20260428T18Z_MSC_RDPS_WindSpeed_IsbL-0985_RLatLon0.09_PT055H.grib2 2026-04-28 20:57 847K
20260428T18Z_MSC_RDPS_WindSpeed_IsbL-1000_RLatLon0.09_PT055H.grib2 2026-04-28 20:57 840K
20260428T18Z_MSC_RDPS_WindSpeed_IsbL-1015_RLatLon0.09_PT055H.grib2 2026-04-28 20:57 830K
20260428T18Z_MSC_RDPS_WindU_AGL-10m_RLatLon0.09_PT055H.grib2 2026-04-28 20:57 427K
20260428T18Z_MSC_RDPS_WindU_AGL-120m_RLatLon0.09_PT055H.grib2 2026-04-28 20:57 529K
20260428T18Z_MSC_RDPS_WindU_AGL-40m_RLatLon0.09_PT055H.grib2 2026-04-28 20:57 532K
20260428T18Z_MSC_RDPS_WindU_AGL-80m_RLatLon0.09_PT055H.grib2 2026-04-28 20:57 531K
20260428T18Z_MSC_RDPS_WindU_IsbL-0001_RLatLon0.09_PT055H.grib2 2026-04-28 20:57 243K
20260428T18Z_MSC_RDPS_WindU_IsbL-0005_RLatLon0.09_PT055H.grib2 2026-04-28 20:57 288K
20260428T18Z_MSC_RDPS_WindU_IsbL-0010_RLatLon0.09_PT055H.grib2 2026-04-28 20:57 301K
20260428T18Z_MSC_RDPS_WindU_IsbL-0020_RLatLon0.09_PT055H.grib2 2026-04-28 20:57 316K
20260428T18Z_MSC_RDPS_WindU_IsbL-0030_RLatLon0.09_PT055H.grib2 2026-04-28 20:57 317K
20260428T18Z_MSC_RDPS_WindU_IsbL-0050_RLatLon0.09_PT055H.grib2 2026-04-28 20:57 343K
20260428T18Z_MSC_RDPS_WindU_IsbL-0100_RLatLon0.09_PT055H.grib2 2026-04-28 20:57 431K
20260428T18Z_MSC_RDPS_WindU_IsbL-0150_RLatLon0.09_PT055H.grib2 2026-04-28 20:57 397K
20260428T18Z_MSC_RDPS_WindU_IsbL-0175_RLatLon0.09_PT055H.grib2 2026-04-28 20:57 421K
20260428T18Z_MSC_RDPS_WindU_IsbL-0200_RLatLon0.09_PT055H.grib2 2026-04-28 20:57 440K
20260428T18Z_MSC_RDPS_WindU_IsbL-0225_RLatLon0.09_PT055H.grib2 2026-04-28 20:57 347K
20260428T18Z_MSC_RDPS_WindU_IsbL-0250_RLatLon0.09_PT055H.grib2 2026-04-28 20:57 347K
20260428T18Z_MSC_RDPS_WindU_IsbL-0275_RLatLon0.09_PT055H.grib2 2026-04-28 20:57 359K
20260428T18Z_MSC_RDPS_WindU_IsbL-0300_RLatLon0.09_PT055H.grib2 2026-04-28 20:57 355K
20260428T18Z_MSC_RDPS_WindU_IsbL-0350_RLatLon0.09_PT055H.grib2 2026-04-28 20:57 364K
20260428T18Z_MSC_RDPS_WindU_IsbL-0400_RLatLon0.09_PT055H.grib2 2026-04-28 20:57 366K
20260428T18Z_MSC_RDPS_WindU_IsbL-0450_RLatLon0.09_PT055H.grib2 2026-04-28 20:57 469K
20260428T18Z_MSC_RDPS_WindU_IsbL-0500_RLatLon0.09_PT055H.grib2 2026-04-28 20:57 472K
20260428T18Z_MSC_RDPS_WindU_IsbL-0550_RLatLon0.09_PT055H.grib2 2026-04-28 20:57 471K
20260428T18Z_MSC_RDPS_WindU_IsbL-0600_RLatLon0.09_PT055H.grib2 2026-04-28 20:57 480K
20260428T18Z_MSC_RDPS_WindU_IsbL-0650_RLatLon0.09_PT055H.grib2 2026-04-28 20:57 481K
20260428T18Z_MSC_RDPS_WindU_IsbL-0700_RLatLon0.09_PT055H.grib2 2026-04-28 20:57 506K
20260428T18Z_MSC_RDPS_WindU_IsbL-0750_RLatLon0.09_PT055H.grib2 2026-04-28 20:57 531K
20260428T18Z_MSC_RDPS_WindU_IsbL-0800_RLatLon0.09_PT055H.grib2 2026-04-28 20:57 568K
20260428T18Z_MSC_RDPS_WindU_IsbL-0850_RLatLon0.09_PT055H.grib2 2026-04-28 20:57 611K
20260428T18Z_MSC_RDPS_WindU_IsbL-0875_RLatLon0.09_PT055H.grib2 2026-04-28 20:57 628K
20260428T18Z_MSC_RDPS_WindU_IsbL-0900_RLatLon0.09_PT055H.grib2 2026-04-28 20:57 642K
20260428T18Z_MSC_RDPS_WindU_IsbL-0925_RLatLon0.09_PT055H.grib2 2026-04-28 20:57 649K
20260428T18Z_MSC_RDPS_WindU_IsbL-0950_RLatLon0.09_PT055H.grib2 2026-04-28 20:57 650K
20260428T18Z_MSC_RDPS_WindU_IsbL-0970_RLatLon0.09_PT055H.grib2 2026-04-28 20:57 649K
20260428T18Z_MSC_RDPS_WindU_IsbL-0985_RLatLon0.09_PT055H.grib2 2026-04-28 20:57 785K
20260428T18Z_MSC_RDPS_WindU_IsbL-1000_RLatLon0.09_PT055H.grib2 2026-04-28 20:57 780K
20260428T18Z_MSC_RDPS_WindU_IsbL-1015_RLatLon0.09_PT055H.grib2 2026-04-28 20:57 818K
20260428T18Z_MSC_RDPS_WindV_AGL-10m_RLatLon0.09_PT055H.grib2 2026-04-28 20:57 424K
20260428T18Z_MSC_RDPS_WindV_AGL-120m_RLatLon0.09_PT055H.grib2 2026-04-28 20:57 524K
20260428T18Z_MSC_RDPS_WindV_AGL-40m_RLatLon0.09_PT055H.grib2 2026-04-28 20:57 526K
20260428T18Z_MSC_RDPS_WindV_AGL-80m_RLatLon0.09_PT055H.grib2 2026-04-28 20:57 525K
20260428T18Z_MSC_RDPS_WindV_IsbL-0001_RLatLon0.09_PT055H.grib2 2026-04-28 20:57 244K
20260428T18Z_MSC_RDPS_WindV_IsbL-0005_RLatLon0.09_PT055H.grib2 2026-04-28 20:57 289K
20260428T18Z_MSC_RDPS_WindV_IsbL-0010_RLatLon0.09_PT055H.grib2 2026-04-28 20:57 305K
20260428T18Z_MSC_RDPS_WindV_IsbL-0020_RLatLon0.09_PT055H.grib2 2026-04-28 20:57 319K
20260428T18Z_MSC_RDPS_WindV_IsbL-0030_RLatLon0.09_PT055H.grib2 2026-04-28 20:57 321K
20260428T18Z_MSC_RDPS_WindV_IsbL-0050_RLatLon0.09_PT055H.grib2 2026-04-28 20:57 343K
20260428T18Z_MSC_RDPS_WindV_IsbL-0100_RLatLon0.09_PT055H.grib2 2026-04-28 20:57 427K
20260428T18Z_MSC_RDPS_WindV_IsbL-0150_RLatLon0.09_PT055H.grib2 2026-04-28 20:57 395K
20260428T18Z_MSC_RDPS_WindV_IsbL-0175_RLatLon0.09_PT055H.grib2 2026-04-28 20:57 419K
20260428T18Z_MSC_RDPS_WindV_IsbL-0200_RLatLon0.09_PT055H.grib2 2026-04-28 20:57 436K
20260428T18Z_MSC_RDPS_WindV_IsbL-0225_RLatLon0.09_PT055H.grib2 2026-04-28 20:57 441K
20260428T18Z_MSC_RDPS_WindV_IsbL-0250_RLatLon0.09_PT055H.grib2 2026-04-28 20:57 343K
20260428T18Z_MSC_RDPS_WindV_IsbL-0275_RLatLon0.09_PT055H.grib2 2026-04-28 20:57 357K
20260428T18Z_MSC_RDPS_WindV_IsbL-0300_RLatLon0.09_PT055H.grib2 2026-04-28 20:57 353K
20260428T18Z_MSC_RDPS_WindV_IsbL-0350_RLatLon0.09_PT055H.grib2 2026-04-28 20:57 361K
20260428T18Z_MSC_RDPS_WindV_IsbL-0400_RLatLon0.09_PT055H.grib2 2026-04-28 20:57 466K
20260428T18Z_MSC_RDPS_WindV_IsbL-0450_RLatLon0.09_PT055H.grib2 2026-04-28 20:57 465K
20260428T18Z_MSC_RDPS_WindV_IsbL-0500_RLatLon0.09_PT055H.grib2 2026-04-28 20:57 468K
20260428T18Z_MSC_RDPS_WindV_IsbL-0550_RLatLon0.09_PT055H.grib2 2026-04-28 20:57 467K
20260428T18Z_MSC_RDPS_WindV_IsbL-0600_RLatLon0.09_PT055H.grib2 2026-04-28 20:57 458K
20260428T18Z_MSC_RDPS_WindV_IsbL-0650_RLatLon0.09_PT055H.grib2 2026-04-28 20:57 479K
20260428T18Z_MSC_RDPS_WindV_IsbL-0700_RLatLon0.09_PT055H.grib2 2026-04-28 20:57 502K
20260428T18Z_MSC_RDPS_WindV_IsbL-0750_RLatLon0.09_PT055H.grib2 2026-04-28 20:57 527K
20260428T18Z_MSC_RDPS_WindV_IsbL-0800_RLatLon0.09_PT055H.grib2 2026-04-28 20:57 562K
20260428T18Z_MSC_RDPS_WindV_IsbL-0850_RLatLon0.09_PT055H.grib2 2026-04-28 20:57 607K
20260428T18Z_MSC_RDPS_WindV_IsbL-0875_RLatLon0.09_PT055H.grib2 2026-04-28 20:57 625K
20260428T18Z_MSC_RDPS_WindV_IsbL-0900_RLatLon0.09_PT055H.grib2 2026-04-28 20:57 640K
20260428T18Z_MSC_RDPS_WindV_IsbL-0925_RLatLon0.09_PT055H.grib2 2026-04-28 20:57 786K
20260428T18Z_MSC_RDPS_WindV_IsbL-0950_RLatLon0.09_PT055H.grib2 2026-04-28 20:57 785K
20260428T18Z_MSC_RDPS_WindV_IsbL-0970_RLatLon0.09_PT055H.grib2 2026-04-28 20:57 784K
20260428T18Z_MSC_RDPS_WindV_IsbL-0985_RLatLon0.09_PT055H.grib2 2026-04-28 20:57 780K
20260428T18Z_MSC_RDPS_WindV_IsbL-1000_RLatLon0.09_PT055H.grib2 2026-04-28 20:57 820K
20260428T18Z_MSC_RDPS_WindV_IsbL-1015_RLatLon0.09_PT055H.grib2 2026-04-28 20:57 812K